Northbrook, IL

6:27 PM CST on December 10, 2016 (GMT -0600)
Chicago Executive

Weather History for KPWK - October, 2013

Change the Weather History Date:

Saturday, October 26, 2013

  Actual Average Record
Temperature  
Mean Temperature 45 °F 49 °F  
Max Temperature 55 °F 58 °F 76 °F (2000)
Min Temperature 35 °F 40 °F 34 °F (2005)
Degree Days  
Heating Degree Days 20 16  
Month to date heating degree days 294 321  
Since 1 July heating degree days 384 433  
Cooling Degree Days 0 0  
Month to date cooling degree days 22 11  
Year to date cooling degree days 918 789  
Moisture  
Dew Point 29 °F    
Average Humidity 50    
Maximum Humidity 73    
Minimum Humidity 39    
Precipitation  
Precipitation 0.00 in 0.10 in 1.46 in (2016)
Month to date precipitation 2.00 2.55  
Year to date precipitation 24.90 28.24  
Sea Level Pressure  
Sea Level Pressure 29.96 in    
Wind  
Wind Speed 11 mph (West)    
Max Wind Speed 23 mph    
Max Gust Speed 35 mph    
Visibility 10 miles    
Events      
T = Trace of Precipitation, MM = Missing Value Source: NWS Daily Summary

Daily Weather History Graph

Daily Weather History Graph

Search for Another Location

Airport or City:

Trip Planner

Search our weather history database for the weather conditions in past years. The results will help you decide how hot, cold, wet, or windy it might be!

Date:

Astronomy

Oct. 26, 2013 Rise Set
Actual Time 7:17 AM CDT 5:52 PM CDT
Civil Twilight 6:48 AM CDT 6:21 PM CDT
Nautical Twilight 6:15 AM CDT 6:54 PM CDT
Astronomical Twilight 5:43 AM CDT 7:26 PM CDT
Moon No Moon Rise 1:34 PM CDT (10/26)
Length of Visible Light 11h 32m
Length of Day
10h 35m
Waning Gibbous, 53% of the Moon is Illuminated
Oct 26
Waning Gibbous
Oct 26
Last Quarter
Nov 3
New
Nov 9
First Quarter
Nov 17
Full

Hourly Weather History & Observations

Time (CDT) Temp. Windchill Dew Point Humidity Pressure Visibility Wind Dir Wind Speed Gust Speed Precip Events Conditions
12:52 AM 46.9 °F - 25.0 °F 42% 30.02 in 10.0 mi SW 15.0 mph 26.5 mph N/A   Clear
1:52 AM 46.0 °F 40.2 °F 25.0 °F 44% 30.00 in 10.0 mi SW 12.7 mph 26.5 mph N/A   Clear
2:52 AM 46.0 °F 38.8 °F 25.0 °F 44% 29.95 in 10.0 mi SW 18.4 mph 28.8 mph N/A   Partly Cloudy
3:52 AM 46.9 °F - 25.0 °F 42% 29.90 in 10.0 mi SW 11.5 mph 29.9 mph N/A   Overcast
4:52 AM 46.9 °F - 26.1 °F 44% 29.88 in 10.0 mi SW 15.0 mph 24.2 mph N/A   Overcast
5:52 AM 46.9 °F - 27.0 °F 46% 29.88 in 10.0 mi WSW 17.3 mph 23.0 mph N/A   Overcast
6:52 AM 46.9 °F - 27.0 °F 46% 29.86 in 10.0 mi SW 10.4 mph 26.5 mph N/A   Overcast
7:52 AM 46.9 °F - 28.0 °F 48% 29.87 in 10.0 mi WSW 15.0 mph 23.0 mph N/A   Mostly Cloudy
8:52 AM 48.0 °F - 30.0 °F 50% 29.87 in 10.0 mi WSW 12.7 mph 19.6 mph N/A   Clear
9:52 AM 48.9 °F - 30.9 °F 50% 29.86 in 10.0 mi West 12.7 mph 23.0 mph N/A   Clear
10:52 AM 51.1 °F - 34.0 °F 52% 29.87 in 10.0 mi WNW 16.1 mph 21.9 mph N/A   Partly Cloudy
11:52 AM 53.1 °F - 36.0 °F 52% 29.88 in 10.0 mi NW 12.7 mph 19.6 mph N/A   Scattered Clouds
12:52 PM 53.1 °F - 33.1 °F 47% 29.88 in 10.0 mi WNW 13.8 mph - N/A   Scattered Clouds
1:52 PM 53.1 °F - 32.0 °F 45% 29.91 in 10.0 mi WNW 17.3 mph 24.2 mph N/A   Overcast
2:52 PM 54.0 °F - 32.0 °F 43% 29.94 in 10.0 mi NNW 13.8 mph 26.5 mph N/A   Overcast
3:52 PM 53.1 °F - 28.9 °F 40% 29.97 in 10.0 mi NW 15.0 mph 20.7 mph N/A   Mostly Cloudy
4:52 PM 51.1 °F - 27.0 °F 39% 30.00 in 10.0 mi NW 13.8 mph 23.0 mph N/A   Mostly Cloudy
5:52 PM 48.0 °F - 27.0 °F 44% 30.02 in 10.0 mi NW 9.2 mph - N/A   Clear
6:52 PM 45.0 °F 41.8 °F 27.0 °F 49% 30.05 in 10.0 mi NW 5.8 mph - N/A   Clear
7:52 PM 42.1 °F 38.4 °F 28.0 °F 58% 30.07 in 10.0 mi NW 5.8 mph - N/A   Clear
8:52 PM 41.0 °F 39.0 °F 28.0 °F 60% 30.08 in 10.0 mi WNW 3.5 mph - N/A   Clear
9:52 PM 39.0 °F - 28.0 °F 65% 30.10 in 10.0 mi Calm Calm - N/A   Clear
10:52 PM 37.0 °F - 28.0 °F 70% 30.09 in 10.0 mi Calm Calm - N/A   Clear
11:52 PM 37.0 °F - 28.9 °F 73% 30.08 in 10.0 mi Calm Calm - N/A   Clear